Wildwood, NJ

2:01 AM EDT on June 22, 2018 (GMT -0400)
Cape May County

Weather History for KWWD - June, 2018

Change the Weather History Date:

Thursday, June 14, 2018

  Actual Average Record
Temperature  
Mean Temperature 78 °F -  
Max Temperature 82 °F 74 °F 89 °F (2005)
Min Temperature 71 °F 61 °F 55 °F (2007)
Cooling Degree Days 12    
Growing Degree Days 28 (Base 50)    
Moisture  
Dew Point 61 °F    
Average Humidity 61    
Maximum Humidity 91    
Minimum Humidity 41    
Precipitation  
Precipitation 0.00 in - - ()
Sea Level Pressure  
Sea Level Pressure 29.87 in    
Wind  
Wind Speed 10 mph (West)    
Max Wind Speed 15 mph    
Max Gust Speed 21 mph    
Visibility 10 miles    
Events      
Averages and records for this station are not official NWS values.
T = Trace of Precipitation, MM = Missing Value Source: NWS Daily Summary

Daily Weather History Graph

Daily Weather History Graph

Search for Another Location

Airport or City:

Astronomy

Jun. 14, 2018 Rise Set
Actual Time 5:33 AM EDT 8:26 PM EDT
Civil Twilight 5:01 AM EDT 8:58 PM EDT
Nautical Twilight 4:20 AM EDT 9:39 PM EDT
Astronomical Twilight 3:34 AM EDT 10:25 PM EDT
Moon 6:27 AM EDT (6/14) 9:25 PM EDT (6/14)
Length of Visible Light 15h 57m
Length of Day
14h 53m
New Moon, 1% of the Moon is Illuminated
Jun 14
New Moon
Jun 20
First Quarter
Jun 28
Full
Jul 6
Last Quarter
Jul 12
New

Hourly Weather History & Observations

Time (EDT) Temp. Heat Index Dew Point Humidity Pressure Visibility Wind Dir Wind Speed Gust Speed Precip Events Conditions
12:55 AM 75.0 °F - 71.1 °F 87% 29.83 in 10.0 mi SW 12.7 mph - N/A   Clear
1:55 AM 75.0 °F - 71.1 °F 87% 29.83 in 10.0 mi WSW 11.5 mph - N/A   Clear
2:55 AM 75.0 °F - 72.0 °F 90% 29.82 in 10.0 mi WSW 9.2 mph - N/A   Partly Cloudy
3:55 AM 73.9 °F - 71.1 °F 91% 29.83 in 10.0 mi West 9.2 mph - N/A   Scattered Clouds
4:55 AM 73.9 °F - 71.1 °F 91% 29.83 in 10.0 mi WSW 6.9 mph - N/A   Scattered Clouds
5:55 AM 73.9 °F - 71.1 °F 91% 29.86 in 10.0 mi Variable 5.8 mph - N/A   Overcast
6:55 AM 73.9 °F - 60.1 °F 62% 29.88 in 10.0 mi North 10.4 mph - N/A   Scattered Clouds
7:55 AM 73.0 °F - 57.9 °F 59% 29.90 in 10.0 mi NNW 10.4 mph 17.3 mph N/A   Mostly Cloudy
8:55 AM 73.9 °F - 57.9 °F 57% 29.91 in 10.0 mi NW 8.1 mph 16.1 mph N/A   Clear
9:55 AM 75.0 °F - 55.9 °F 51% 29.92 in 10.0 mi WNW 12.7 mph 18.4 mph N/A   Clear
10:55 AM 75.0 °F - 54.0 °F 48% 29.92 in 10.0 mi West 12.7 mph 16.1 mph N/A   Clear
11:55 AM 75.9 °F - 55.9 °F 50% 29.91 in 10.0 mi West 15.0 mph - N/A   Clear
12:55 PM 79.0 °F - 57.0 °F 47% 29.89 in 10.0 mi West 10.4 mph - N/A   Clear
1:55 PM 80.1 °F 80.4 °F 57.0 °F 45% 29.87 in 10.0 mi WNW 9.2 mph 18.4 mph N/A   Clear
2:55 PM 80.1 °F 80.2 °F 55.9 °F 43% 29.86 in 10.0 mi WNW 11.5 mph - N/A   Clear
3:55 PM 82.0 °F 81.6 °F 55.9 °F 41% 29.86 in 10.0 mi WNW 11.5 mph 20.7 mph N/A   Clear
4:55 PM 82.0 °F 81.6 °F 55.9 °F 41% 29.86 in 10.0 mi West 12.7 mph - N/A   Clear
5:55 PM 81.0 °F 81.1 °F 57.9 °F 45% 29.86 in 10.0 mi West 8.1 mph - N/A   Clear
6:55 PM 79.0 °F - 59.0 °F 50% 29.86 in 10.0 mi WSW 11.5 mph - N/A   Clear
7:55 PM 77.0 °F - 60.1 °F 56% 29.87 in 10.0 mi WSW 8.1 mph - N/A   Clear
8:55 PM 75.0 °F - 59.0 °F 57% 29.88 in 10.0 mi WSW 8.1 mph - N/A   Clear
9:55 PM 73.9 °F - 57.9 °F 57% 29.89 in 10.0 mi WSW 9.2 mph - N/A   Clear
10:55 PM 73.0 °F - 59.0 °F 61% 29.90 in 10.0 mi WSW 9.2 mph - N/A   Clear
11:55 PM 71.1 °F - 60.1 °F 68% 29.91 in 10.0 mi West 8.1 mph - N/A   Clear